Погода в Волжском

Россия / Нижегородская область     56°02′47″N   44°34′17″E
В апреле 2022 года жителям России запретили посещать сайт meteo.paraplan.net по решению Генеральной прокуратуры. Аудитория сайта уменьшилась в 10 раз. Владельцы сайта не видят смысла в поддержке погодного сервера в таких условиях. Сайт будет закрыт в октябре.
темп.,
°C
ветер,
м/с
пор.,
м/с
влажн.,
%
обл.,
%
осадки,
мм/ч
давл.,
гПа
погр.,
м
4 октября, вт
вт400:00+11ююв51082100 0.0 1014367
03:00+10ююв411945 0.0 1015300
06:00+10ююв5119667 0.0 1016368
09:00+12ююв7108327 0.0 1017552
12:00+15ююв796193 0.0 10171262
15:00+15ююв6969100 0.1 10171013
18:00+12ююв7128170 0.0 1018543
21:00+11юв61478100 0.0 1017508
5 октября, ср
ср500:00+11ююв71377100 0.0 1016539
03:00+11ю71289100 0.3 1016670
06:00+10ююв81490100 1.6 1015646
09:00+11ю71187100 2.0 1015953
12:00+13ююз6106483 1.0 10151448
15:00+13ююз5866100 1.4 10151161
18:00+10юз4881100 0.7 1015555
21:00+9ююз5985100 2.1 1014890
6 октября, чт
чт600:00+8зюз478597 0.9 1014595
03:00+7юз3587100 1.2 1014600
06:00+6з3589100 1.0 1014601
09:00+6з4690100 1.3 1014627
12:00+8з6777100 0.3 10151101
15:00+8з578492 0.4 1016739
18:00+7з4108533 0.1 1017434
21:00+7зюз388183 0.1 1018173
7 октября, пт
пт700:00+5юз38854 0.0 1018150
03:00+4ююз3108871 0.0 1016214
06:00+6ююз5128894 0.0 1014355
09:00+8зюз51193100 0.1 1014737
12:00+11з71184100 0.3 1015915
15:00+10з71277100 0.4 10171146
18:00+10з61268100 0.0 1018649
21:00+9зсз714815 0.0 1020550
8 октября, сб
сб800:00+7з613890 0.0 1022406
03:00+6з511940 0.0 1022293
06:00+5зюз49964 0.0 1024198
09:00+9зюз59831 0.0 1024367
12:00+13зюз58651 0.0 1024849
15:00+14зюз57605 0.0 1022978
18:00+9юз38785 0.0 1022135
21:00+8ююз3118431 0.0 1022234